Tracking 17921 objects as of 17-January-2017
HD Live streaming from Space Station
objects crossing your sky now

MOZHAYETS

Track MOZHAYETS now!
10-day predictions
MOZHAYETS is classified as:


NORAD ID: 27560
Int'l Code: 2002-054B
Perigee: 679.6 km
Apogee: 736.7 km
Inclination: 98.2 °
Period: 98.8 minutes
Semi major axis: 7079 km
RCS: 1.03 m2 (large)
Launch date: November 28, 2002
Source: Commonwealth of Independent States (former USSR) (CIS)
Launch site: PLESETSK MISSILE AND SPACE COMPLEX (PKMTR)
Your satellite tracking list
Your tracking list is empty





NASA's NSSDC Master Catalog

Two Line Element Set (TLE):
1 27560U 02054B   17016.87961642  .00000079  00000-0  27597-4 0  9999
2 27560  98.1845 153.6445 0040337 220.5484 292.2523 14.57576304749958
Source of the keplerian elements: AFSPC